Location: West Sayville
(40.7279°N, 73.0976°W)
Time: 05:25:29
(UTC+00:00)

Cosmos 1758 Rocket - Pass Details

Date: 29 October 2020
Orbit: 601 x 637 km, 82.5° (Epoch: 29 November)

Event Time Altitude Azimuth Distance (km) Brightness Sun altitude
Rises 22:20:36 0° 347° (NNW) 2,899 7.0 -6.1°
Reaches altitude 10° 22:22:53 10° 343° (NNW) 1,983 6.2 -6.5°
Maximum altitude 22:27:09 55° 266° (W) 740 4.4 -7.3°
Drops below altitude 10° 22:31:22 10° 189° (S) 1,948 6.4 -8.1°
Sets 22:33:35 0° 185° (S) 2,843 7.2 -8.5°
